[[{"header":{"parameterUnit":"m.s-1","parameterCategory":1,"la1":30.2991,"la2":30.254,"lo1":-89.0895,"lo2":-89.0444,"dy":0.0017,"dx":0.0017,"nx":28,"ny":28,"refTime":"2024-03-16T21:00:00:Z","depth":0,"parameterNumber":2,"parameterNumberName":"U-component_of_WINDS"},"data":[0,0,0,0,0,0,0,0,0,0,0,0,0,0,0,0,0,0,0,0,0,0,0,0,0,0,0,0,0,0,0,0,0,0,0,0,0,0,0,0,0,0,0,0,0,0,0,0,0,0,0,0,0,0,0,0,0,0,0.0581,0.0581,0,0.0588,0.0588,0.0588,0.0594,0.0594,0.0594,0.0594,0.0603,0.0603,0.0604,0,0,0,0,0,0,0,0,0,0,0,0,0,0.0573,0.0573,0.0581,0.0581,0.0581,0.0588,0.0588,0.0588,0.0594,0.0594,0.0594,0.0594,0.0603,0.0603,0.0604,0,0,0,0,0,0,0,0,0,0,0,0,0,0.0578,0.0573,0.0581,0.0585,0.0585,0.0588,0.0588,0.0588,0.0594,0.0594,0.0594,0.0595,0.0603,0.0603,0.0604,0.0603,0,0,0.0604,0.0604,0,0,0,0,0,0,0,0,0.0578,0.0578,0.0584,0.0585,0.0585,0.059,0.0589,0.0593,0.0594,0.0591,0.0594,0.0595,0.0599,0.06,0.0601,0.0604,0.0604,0.0604,0.0605,0.0605,0.0605,0,0,0,0,0,0,0,0.0577,0.0578,0.0584,0.0584,0.0585,0.0586,0.0587,0.059,0.0594,0.0591,0.0592,0.0592,0.0599,0.06,0.0601,0.0604,0.0604,0.0605,0.0605,0.0605,0.0606,0.0606,0,0,0,0,0,0,0.0576,0.0578,0.0584,0.0584,0.0581,0.0587,0.0587,0.0589,0.0594,0.0595,0.0592,0.0593,0.06,0.0601,0.0601,0.0601,0.0605,0.0605,0.0605,0.0607,0.0606,0.0606,0,0,0,0,0,0,0.0576,0.0577,0.0583,0.0581,0.0582,0.0587,0.0588,0.0589,0.059,0.0595,0.0596,0.0593,0.06,0.0601,0.0602,0.0601,0.0605,0.0605,0.0607,0.0607,0.0606,0.06,0,0,0,0,0,0,0.0576,0.0577,0.0576,0.0581,0.0582,0.0584,0.0588,0.0589,0.059,0.0591,0.0596,0.0597,0.06,0.0602,0.0603,0.0602,0.0605,0.0607,0.0607,0.0606,0.06,0.06,0.0599,0,0,0,0,0,0.0575,0.0575,0.0576,0.0577,0.0582,0.0584,0.0585,0.0588,0.059,0.059,0.0593,0.0596,0.0601,0.0602,0.0603,0.0602,0.0607,0.0607,0.0606,0.0601,0.06,0.0599,0,0,0,0,0,0,0.0571,0.0576,0.0577,0.0578,0.0581,0.0585,0.0585,0.0588,0.059,0.059,0.0595,0.0596,0.0597,0.06,0.0601,0.0601,0.0604,0.0604,0.06,0.0599,0.0598,0.0598,0.0606,0,0,0,0,0,0.057,0.0571,0.0575,0.0575,0.0576,0.0581,0.0582,0.0584,0.0587,0.0588,0.0592,0.0595,0.0597,0.0598,0.06,0.0601,0.0601,0.06,0.06,0.0599,0.0599,0.0598,0.0597,0.0605,0.0605,0.0605,0,0,0.0568,0.0571,0.0571,0.0575,0.0577,0.0578,0.0581,0.0583,0.0583,0.0589,0.059,0.0592,0.0596,0.0597,0.0597,0.0599,0.0597,0.0599,0.0598,0.0598,0.0598,0.0597,0.0596,0.0605,0.0605,0.0605,0,0,0.0565,0.0568,0.0568,0.0569,0.0572,0.0575,0.0575,0.0579,0.058,0.0581,0.0585,0.0586,0.059,0.0592,0.0594,0.059,0.0593,0.0591,0.0587,0.0587,0.0586,0.0585,0.0583,0.0583,0.0591,0.0591,0.0591,0,0.0563,0.0564,0.0567,0.0568,0.0569,0.0573,0.0573,0.0575,0.0579,0.0579,0.0581,0.0585,0.0588,0.0588,0.0587,0.0589,0.0588,0.059,0.0586,0.0585,0.0585,0.0583,0.0582,0.059,0.059,0.059,0.059,0,0.0561,0.0561,0.0561,0.0564,0.0565,0.0565,0.0568,0.0569,0.0571,0.0574,0.0574,0.0578,0.058,0.0581,0.0583,0.0581,0.0582,0.0585,0.0588,0.0584,0.0582,0.0581,0.059,0.059,0.059,0.059,0,0,0.0556,0.0559,0.0559,0.056,0.0563,0.0563,0.0564,0.0565,0.0566,0.0568,0.0568,0.057,0.0572,0.0574,0.0577,0.0576,0.0572,0.0579,0.0579,0.0577,0.0569,0.0567,0.0566,0.0574,0.0574,0.0574,0.0569,0,0.0553,0.0553,0.0556,0.0555,0.0556,0.0559,0.0559,0.0561,0.0563,0.0563,0.0566,0.0567,0.057,0.0571,0.057,0.0573,0.0571,0.0573,0.0574,0.0574,0.0572,0.0566,0.0563,0.0559,0.0568,0.0568,0.0568,0,0.055,0.0551,0.055,0.0552,0.0552,0.0552,0.0554,0.0554,0.0556,0.0558,0.0559,0.0561,0.0562,0.0564,0.0564,0.0566,0.0566,0.0568,0.0568,0.0567,0.0571,0.0565,0.0557,0.0556,0.0567,0.0567,0.0567,0,0.0546,0.0547,0.0546,0.0547,0.0549,0.0549,0.055,0.0552,0.0553,0.0554,0.0554,0.0555,0.0556,0.0557,0.056,0.0562,0.0559,0.0563,0.056,0.056,0.0559,0.0559,0.0551,0.056,0.056,0.056,0.056,0,0.0542,0.0542,0.0544,0.0544,0.0543,0.0546,0.0545,0.0546,0.0548,0.0547,0.0551,0.055,0.0554,0.0555,0.0557,0.0556,0.0556,0.0557,0.0558,0.0557,0.0556,0.0557,0.0557,0.056,0.056,0.056,0.056,0,0.0538,0.0539,0.0539,0.0541,0.0541,0.054,0.0542,0.0541,0.0543,0.0543,0.0543,0.0546,0.0546,0.0549,0.055,0.0551,0.0549,0.0551,0.0548,0.0549,0.0546,0.0546,0.0537,0.0536,0.0546,0.0546,0.0546,0,0.0535,0.0534,0.0536,0.0535,0.0536,0.0536,0.0536,0.0538,0.0539,0.054,0.0539,0.0539,0.054,0.054,0.0542,0.0543,0.0544,0.0541,0.0544,0.0542,0.0543,0.0543,0.0542,0.054,0.054,0.054,0.054,0,0.053,0.0531,0.0531,0.053,0.053,0.0531,0.0531,0.0531,0.0533,0.0533,0.0533,0.0533,0.0533,0.0534,0.0534,0.0535,0.0538,0.0538,0.0538,0.0536,0.0535,0.0535,0.0546,0.0539,0.0539,0.0539,0.0539,0.0539,0.0526,0.0525,0.0526,0.0525,0.0525,0.0525,0.0525,0.0526,0.0525,0.0526,0.0527,0.0526,0.0527,0.0528,0.0529,0.0528,0.053,0.0529,0.0529,0.0528,0.0527,0.0535,0.0529,0.0529,0.0529,0.0529,0.0529,0,0.0521,0.0521,0.0521,0.052,0.052,0.0521,0.0521,0.0521,0.052,0.052,0.052,0.0519,0.0519,0.0521,0.052,0.052,0.052,0.0519,0.0519,0.0519,0.0527,0.0527,0.0518,0.0518,0.0518,0.0518,0.0518,0.0518,0.0518,0.0516,0.0517,0.0515,0.0515,0.0514,0.0514,0.0513,0.0514,0.0512,0.0512,0.0512,0.0513,0.0513,0.0512,0.0513,0.0512,0.0511,0.0511,0.0518,0.0519,0.052,0.052,0.0511,0.0511,0.0504,0.0504,0.0504]},{"header":{"parameterUnit":"m.s-1","parameterCategory":1,"la1":30.2991,"la2":30.254,"lo1":-89.0895,"lo2":-89.0444,"dy":0.0017,"dx":0.0017,"nx":28,"ny":28,"refTime":"2024-03-16T21:00:00:Z","depth":0,"parameterNumber":3,"parameterNumberName":"V-component_of_WINDS"},"data":[0,0,0,0,0,0,0,0,0,0,0,0,0,0,0,0,0,0,0,0,0,0,0,0,0,0,0,0,0,0,0,0,0,0,0,0,0,0,0,0,0,0,0,0,0,0,0,0,0,0,0,0,0,0,0,0,0,0,-1.0206,-1.0206,0,-1.024,-1.024,-1.024,-1.0269,-1.0269,-1.0269,-1.027,-1.0303,-1.0304,-1.0304,0,0,0,0,0,0,0,0,0,0,0,0,0,-1.0164,-1.0164,-1.0206,-1.0206,-1.0207,-1.024,-1.024,-1.024,-1.0269,-1.0269,-1.0269,-1.027,-1.0303,-1.0303,-1.0304,0,0,0,0,0,0,0,0,0,0,0,0,0,-1.0188,-1.0165,-1.0206,-1.0225,-1.0227,-1.0239,-1.024,-1.0241,-1.0268,-1.0269,-1.0269,-1.027,-1.0302,-1.0303,-1.0304,-1.0301,0,0,-1.0307,-1.0307,0,0,0,0,0,0,0,0,-1.0187,-1.019,-1.0222,-1.0223,-1.0226,-1.025,-1.0237,-1.0261,-1.0268,-1.0253,-1.027,-1.027,-1.0285,-1.0287,-1.0293,-1.0302,-1.0304,-1.0307,-1.0308,-1.0308,-1.0308,0,0,0,0,0,0,0,-1.0185,-1.0188,-1.0219,-1.0222,-1.0225,-1.0231,-1.0235,-1.0242,-1.0266,-1.0254,-1.0256,-1.026,-1.0286,-1.0292,-1.0294,-1.0304,-1.0307,-1.0308,-1.0308,-1.0309,-1.031,-1.031,0,0,0,0,0,0,-1.0181,-1.0187,-1.0218,-1.022,-1.0207,-1.0231,-1.0236,-1.0242,-1.0266,-1.027,-1.0259,-1.0261,-1.029,-1.0293,-1.0295,-1.0291,-1.0308,-1.0309,-1.0309,-1.0311,-1.031,-1.031,0,0,0,0,0,0,-1.018,-1.0183,-1.0217,-1.0204,-1.0209,-1.0231,-1.0238,-1.0242,-1.0248,-1.027,-1.0274,-1.0261,-1.029,-1.0294,-1.0299,-1.0293,-1.0309,-1.031,-1.0312,-1.0311,-1.031,-1.0284,0,0,0,0,0,0,-1.0178,-1.0183,-1.0182,-1.0204,-1.0209,-1.0221,-1.0238,-1.0243,-1.025,-1.0252,-1.0272,-1.0276,-1.0291,-1.0297,-1.03,-1.0294,-1.0311,-1.0312,-1.0311,-1.031,-1.0286,-1.0283,-1.028,0,0,0,0,0,-1.0177,-1.0174,-1.0182,-1.0186,-1.0209,-1.022,-1.0223,-1.0241,-1.0249,-1.0248,-1.0262,-1.0275,-1.0293,-1.0297,-1.03,-1.0295,-1.0313,-1.0311,-1.031,-1.0287,-1.0283,-1.028,0,0,0,0,0,0,-1.0151,-1.0177,-1.0186,-1.019,-1.0203,-1.0225,-1.0225,-1.0237,-1.0247,-1.0249,-1.027,-1.0274,-1.0276,-1.0287,-1.0291,-1.0292,-1.0304,-1.0304,-1.0286,-1.0282,-1.0279,-1.0277,-1.0312,0,0,0,0,0,-1.0145,-1.0152,-1.0175,-1.0176,-1.0182,-1.0202,-1.0207,-1.022,-1.0233,-1.0239,-1.0253,-1.0265,-1.0273,-1.0278,-1.0287,-1.0287,-1.0291,-1.0285,-1.0282,-1.028,-1.0279,-1.0278,-1.0275,-1.0306,-1.0306,-1.0306,0,0,-1.0134,-1.015,-1.0153,-1.0171,-1.0182,-1.0188,-1.0206,-1.0212,-1.0217,-1.024,-1.0245,-1.0256,-1.0271,-1.0273,-1.0274,-1.0281,-1.0271,-1.0278,-1.0276,-1.0277,-1.0276,-1.0273,-1.0271,-1.0305,-1.0306,-1.0306,0,0,-1.0118,-1.013,-1.0132,-1.0142,-1.0159,-1.0172,-1.0172,-1.0192,-1.02,-1.0206,-1.0223,-1.0228,-1.0242,-1.0252,-1.0259,-1.0243,-1.0256,-1.0246,-1.0231,-1.023,-1.0227,-1.0225,-1.0219,-1.0216,-1.0245,-1.0245,-1.0245,0,-1.0102,-1.0112,-1.0131,-1.0136,-1.0143,-1.0164,-1.0165,-1.0174,-1.0192,-1.0196,-1.0204,-1.0221,-1.0232,-1.0236,-1.0232,-1.0238,-1.0238,-1.0244,-1.0226,-1.0224,-1.0223,-1.0217,-1.0214,-1.0243,-1.0244,-1.0244,-1.0244,0,-1.0092,-1.0098,-1.0098,-1.0115,-1.0121,-1.0124,-1.0143,-1.0147,-1.0159,-1.0171,-1.0176,-1.019,-1.0202,-1.0203,-1.0215,-1.0208,-1.0212,-1.0222,-1.0235,-1.0218,-1.0213,-1.0211,-1.0241,-1.0242,-1.0242,-1.0243,0,0,-1.006,-1.0086,-1.0086,-1.0093,-1.0112,-1.0117,-1.012,-1.0132,-1.0135,-1.0146,-1.0149,-1.0159,-1.0169,-1.0176,-1.0189,-1.0188,-1.0173,-1.0198,-1.0199,-1.0192,-1.0165,-1.0157,-1.0154,-1.0182,-1.0181,-1.0181,-1.0164,0,-1.0046,-1.0053,-1.0069,-1.0071,-1.0077,-1.0096,-1.0099,-1.011,-1.0121,-1.0127,-1.0139,-1.0145,-1.0158,-1.0163,-1.0163,-1.0175,-1.0168,-1.0177,-1.0183,-1.0183,-1.0178,-1.0151,-1.0143,-1.0126,-1.0162,-1.0162,-1.0161,0,-1.003,-1.004,-1.0042,-1.006,-1.0063,-1.0065,-1.0075,-1.0081,-1.0094,-1.0102,-1.0109,-1.0123,-1.0126,-1.0138,-1.0142,-1.0147,-1.0151,-1.0157,-1.0157,-1.0158,-1.0171,-1.0151,-1.0121,-1.0118,-1.0159,-1.0159,-1.0159,0,-1.0006,-1.002,-1.0022,-1.0028,-1.0049,-1.0049,-1.0058,-1.0071,-1.0076,-1.0085,-1.0089,-1.0098,-1.0103,-1.011,-1.0125,-1.0132,-1.0127,-1.014,-1.0132,-1.0132,-1.013,-1.013,-1.01,-1.0133,-1.0133,-1.0133,-1.0134,0,-0.9988,-0.9988,-1.0011,-1.0013,-1.0014,-1.0032,-1.0032,-1.0042,-1.0053,-1.0056,-1.0073,-1.0076,-1.0096,-1.0101,-1.0113,-1.0113,-1.0116,-1.0121,-1.0124,-1.012,-1.0119,-1.0122,-1.0123,-1.0133,-1.0133,-1.0133,-1.0133,0,-0.996,-0.9976,-0.998,-0.9999,-1.0003,-1.0003,-1.0018,-1.002,-1.0032,-1.0035,-1.0037,-1.0055,-1.0061,-1.0077,-1.0088,-1.0095,-1.0092,-1.0099,-1.0088,-1.009,-1.0081,-1.0081,-1.0051,-1.0048,-1.0084,-1.0084,-1.0083,0,-0.9948,-0.9948,-0.9966,-0.997,-0.9977,-0.9983,-0.9988,-1.0005,-1.001,-1.0023,-1.0023,-1.0031,-1.0037,-1.0046,-1.006,-1.0067,-1.0073,-1.0062,-1.0074,-1.0069,-1.0072,-1.0071,-1.0071,-1.0059,-1.0059,-1.0058,-1.0058,0,-0.9923,-0.993,-0.9937,-0.9946,-0.9951,-0.9959,-0.9968,-0.997,-0.999,-0.9993,-1.0,-1.0005,-1.0015,-1.0022,-1.0031,-1.0039,-1.0051,-1.0054,-1.0052,-1.0047,-1.004,-1.0043,-1.008,-1.0054,-1.0055,-1.0055,-1.0055,-1.0055,-0.9902,-0.9903,-0.9915,-0.9922,-0.993,-0.9937,-0.994,-0.9951,-0.9957,-0.9966,-0.9976,-0.9981,-0.9992,-1.0006,-1.0013,-1.0016,-1.0023,-1.0021,-1.002,-1.0019,-1.0016,-1.004,-1.0018,-1.0018,-1.0018,-1.0018,-1.0018,0,-0.9877,-0.9886,-0.9891,-0.9903,-0.9908,-0.9919,-0.9929,-0.9932,-0.9936,-0.9945,-0.9951,-0.9958,-0.9964,-0.9977,-0.9985,-0.9985,-0.999,-0.9986,-0.9986,-0.9987,-1.0011,-1.0011,-0.9981,-0.9981,-0.9981,-0.9981,-0.9981,-0.9981,-0.9865,-0.9866,-0.9875,-0.988,-0.9889,-0.9893,-0.9898,-0.9904,-0.9912,-0.9918,-0.9923,-0.9932,-0.9943,-0.995,-0.9956,-0.996,-0.9961,-0.9955,-0.996,-0.9982,-0.9985,-0.9989,-0.9989,-0.9955,-0.9955,-0.9936,-0.9936,-0.9936]}]]